{"data":{"norad_id":66730,"intl_designator":"2025-276BS","name":"FLOCK 4H-27","alt_names":[],"object_type":"PAYLOAD","status":"ACTIVE","operator":null,"country":"US","launch_date":"2025-11-28","launch_site_code":"AFWTR","launch_vehicle":null,"mission":null,"orbit_class":"UNKNOWN","rcs_meters":null,"size_class":null,"mass_kg":null,"dimensions":null,"purposes":["earth_obs"],"wikipedia_slug":null,"has_3d_model":false,"image_url":null,"decayed_at":null,"tle_current":{"epoch":"2026-09-20T04:35:31.623936Z","epoch_age_seconds":44977,"freshness":"FRESH","line1":"1 66730U 25276BS  26263.19133824  .00003908  00000+0  17691-3 0  9990","line2":"2 66730  97.4089 335.3251 0001564  74.1016 286.0392 15.21474726 44870","mean_motion":15.21474726,"eccentricity":0.0001564,"inclination_deg":97.4089,"raan_deg":335.3251,"arg_perigee_deg":74.1016,"mean_anomaly_deg":286.0392,"bstar":0.00017691,"rev_number":4487,"period_min":94.645016140741,"perigee_km":500.3156292236,"apogee_km":502.46754576577,"semimajor_km":6879.5285874947,"source":"CELESTRAK","updated_at":"2026-09-20T09:00:34.752752Z"}}}